Previsão horária em Abdrahmanovo

Hoje, 17 Abril, Sábado

Tempo Temperatura Precipitação Vento Pressão Humidade
00:00 +10°C° 0 mm 4 m/s 754 mmHg 88%
01:00 +9°C° 0 mm 3 m/s 754 mmHg 91%
02:00 +8°C° 0 mm 3 m/s 754 mmHg 92%
03:00 +8°C° 0 mm 3 m/s 755 mmHg 92%
04:00 +7°C° 0 mm 3 m/s 755 mmHg 92%
05:00 +7°C° 0 mm 3 m/s 755 mmHg 90%
06:00 +7°C° 0 mm 3 m/s 755 mmHg 88%
07:00 +7°C° 0 mm 3 m/s 755 mmHg 87%
08:00 +9°C° 0 mm 3 m/s 755 mmHg 80%
09:00 +11°C° 0 mm 4 m/s 755 mmHg 73%
10:00 +12°C° 0 mm 4 m/s 755 mmHg 66%
11:00 +13°C° 0 mm 5 m/s 755 mmHg 61%
12:00 +14°C° 0 mm 5 m/s 755 mmHg 57%
13:00 +15°C° 0 mm 5 m/s 755 mmHg 53%
14:00 +17°C° 0 mm 4 m/s 754 mmHg 51%
15:00 +17°C° 0 mm 4 m/s 754 mmHg 48%
16:00 +17°C° 0 mm 4 m/s 754 mmHg 46%
17:00 +15°C° 0 mm 4 m/s 754 mmHg 48%
18:00 +14°C° 0 mm 4 m/s 754 mmHg 50%
19:00 +13°C° 0 mm 4 m/s 754 mmHg 52%
20:00 +12°C° 0 mm 3 m/s 754 mmHg 54%
21:00 +10°C° 0 mm 3 m/s 754 mmHg 56%
22:00 +9°C° 0 mm 3 m/s 754 mmHg 58%
23:00 +8°C° 0 mm 3 m/s 754 mmHg 58%

Amanhã, 18 Abril, Domingo

Tempo Temperatura Precipitação Vento Pressão Humidade
00:00 +8°C° 0 mm 3 m/s 754 mmHg 58%
01:00 +6°C° 0 mm 4 m/s 754 mmHg 58%
02:00 +5°C° 0 mm 3 m/s 754 mmHg 60%
03:00 +5°C° 0 mm 3 m/s 754 mmHg 62%
04:00 +4°C° 0 mm 3 m/s 754 mmHg 63%
05:00 +4°C° 0 mm 3 m/s 754 mmHg 64%
06:00 +4°C° 0 mm 3 m/s 754 mmHg 64%
07:00 +4°C° 0 mm 3 m/s 754 mmHg 65%
08:00 +7°C° 0 mm 3 m/s 754 mmHg 58%
09:00 +7°C° 0 mm 4 m/s 754 mmHg 52%
10:00 +9°C° 0 mm 5 m/s 754 mmHg 46%
11:00 +10°C° 0 mm 5 m/s 754 mmHg 43%
12:00 +12°C° 0 mm 5 m/s 754 mmHg 40%
13:00 +13°C° 0 mm 5 m/s 754 mmHg 36%
14:00 +13°C° 0 mm 5 m/s 754 mmHg 37%
15:00 +13°C° 0 mm 5 m/s 754 mmHg 37%
16:00 +13°C° 0 mm 5 m/s 754 mmHg 37%
17:00 +13°C° 0 mm 5 m/s 754 mmHg 42%
18:00 +12°C° 0 mm 5 m/s 754 mmHg 46%
19:00 +10°C° 0 mm 5 m/s 754 mmHg 51%
20:00 +9°C° 0 mm 5 m/s 754 mmHg 55%
21:00 +7°C° 0 mm 6 m/s 755 mmHg 60%
22:00 +5°C° 0 mm 6 m/s 755 mmHg 64%
23:00 +4°C° 0 mm 6 m/s 755 mmHg 68%

Depois de amanhã, 19 Abril, Segunda-feira

Tempo Temperatura Precipitação Vento Pressão Humidade
00:00 +3°C° 0 mm 6 m/s 755 mmHg 71%
01:00 +3°C° 0 mm 6 m/s 756 mmHg 75%
02:00 +2°C° 0 mm 6 m/s 756 mmHg 76%
03:00 +2°C° 0 mm 6 m/s 756 mmHg 77%
04:00 +1°C° 0 mm 5 m/s 756 mmHg 79%
05:00 +1°C° 0 mm 6 m/s 756 mmHg 75%
06:00 +2°C° 0 mm 6 m/s 757 mmHg 71%
07:00 +2°C° 0 mm 6 m/s 757 mmHg 67%
08:00 +2°C° 0 mm 6 m/s 757 mmHg 65%
09:00 +2°C° 0 mm 6 m/s 758 mmHg 63%
10:00 +2°C° 0 mm 6 m/s 758 mmHg 61%
11:00 +2°C° 0 mm 6 m/s 758 mmHg 63%
12:00 +2°C° 0 mm 6 m/s 759 mmHg 64%
13:00 +3°C° 0 mm 6 m/s 759 mmHg 66%
14:00 +3°C° 0 mm 6 m/s 759 mmHg 63%
15:00 +4°C° 0 mm 6 m/s 759 mmHg 61%
16:00 +4°C° 0 mm 6 m/s 759 mmHg 58%
17:00 +5°C° 0 mm 5 m/s 759 mmHg 55%
18:00 +5°C° 0 mm 5 m/s 759 mmHg 53%
19:00 +5°C° 0 mm 5 m/s 759 mmHg 50%
20:00 +5°C° 0 mm 5 m/s 759 mmHg 51%
21:00 +3°C° 0 mm 5 m/s 760 mmHg 52%
22:00 +2°C° 0 mm 5 m/s 760 mmHg 52%
23:00 +1°C° 0 mm 5 m/s 760 mmHg 51%

20 Abril, Terça-feira

Tempo Temperatura Precipitação Vento Pressão Humidade
00:00 0°C° 0 mm 5 m/s 761 mmHg 50%
01:00 0°C° 0 mm 5 m/s 761 mmHg 49%
02:00 -1°C° 0 mm 5 m/s 761 mmHg 50%
03:00 -1°C° 0 mm 5 m/s 761 mmHg 51%
04:00 -2°C° 0 mm 5 m/s 762 mmHg 52%
05:00 -2°C° 0 mm 5 m/s 762 mmHg 49%
06:00 -1°C° 0 mm 5 m/s 762 mmHg 47%
07:00 -2°C° 0 mm 6 m/s 763 mmHg 44%
08:00 -1°C° 0 mm 6 m/s 763 mmHg 40%
09:00 +1°C° 0 mm 6 m/s 762 mmHg 35%
10:00 +3°C° 0 mm 6 m/s 762 mmHg 31%
11:00 +4°C° 0 mm 6 m/s 762 mmHg 29%
12:00 +5°C° 0 mm 6 m/s 762 mmHg 28%
13:00 +7°C° 0 mm 6 m/s 762 mmHg 26%
14:00 +7°C° 0 mm 6 m/s 762 mmHg 25%
15:00 +8°C° 0 mm 6 m/s 761 mmHg 25%
16:00 +9°C° 0 mm 5 m/s 761 mmHg 25%
17:00 +8°C° 0 mm 5 m/s 761 mmHg 28%
18:00 +7°C° 0 mm 4 m/s 761 mmHg 32%
19:00 +7°C° 0 mm 4 m/s 761 mmHg 35%
20:00 +7°C° 0 mm 3 m/s 761 mmHg 39%
21:00 +5°C° 0 mm 3 m/s 761 mmHg 42%
22:00 +4°C° 0 mm 3 m/s 761 mmHg 46%
23:00 +3°C° 0 mm 3 m/s 761 mmHg 47%

21 Abril, Quarta-feira

Tempo Temperatura Precipitação Vento Pressão Humidade
00:00 +3°C° 0 mm 3 m/s 761 mmHg 48%
01:00 +1°C° 0 mm 4 m/s 761 mmHg 49%
02:00 +1°C° 0 mm 4 m/s 761 mmHg 50%
03:00 0°C° 0 mm 4 m/s 761 mmHg 51%
04:00 0°C° 0 mm 4 m/s 761 mmHg 53%
05:00 0°C° 0 mm 5 m/s 761 mmHg 51%
06:00 0°C° 0 mm 5 m/s 761 mmHg 49%
07:00 +1°C° 0 mm 5 m/s 761 mmHg 48%
08:00 +2°C° 0 mm 6 m/s 761 mmHg 43%
09:00 +4°C° 0 mm 7 m/s 761 mmHg 38%
10:00 +5°C° 0 mm 7 m/s 761 mmHg 33%
11:00 +8°C° 0 mm 7 m/s 760 mmHg 30%
12:00 +9°C° 0 mm 8 m/s 760 mmHg 28%
13:00 +10°C° 0 mm 8 m/s 760 mmHg 26%
14:00 +11°C° 0 mm 7 m/s 760 mmHg 25%
15:00 +11°C° 0 mm 7 m/s 760 mmHg 25%
16:00 +12°C° 0 mm 7 m/s 759 mmHg 25%
17:00 +11°C° 0 mm 6 m/s 759 mmHg 28%
18:00 +10°C° 0 mm 5 m/s 759 mmHg 32%
19:00 +10°C° 0 mm 5 m/s 760 mmHg 35%
20:00 +10°C° 0 mm 4 m/s 760 mmHg 38%
21:00 +8°C° 0 mm 4 m/s 760 mmHg 42%
22:00 +8°C° 0 mm 3 m/s 760 mmHg 45%
23:00 +7°C° 0 mm 4 m/s 760 mmHg 46%

22 Abril, Quinta-feira

Tempo Temperatura Precipitação Vento Pressão Humidade
00:00 +6°C° 0 mm 4 m/s 760 mmHg 48%
01:00 +6°C° 0 mm 4 m/s 760 mmHg 49%
02:00 +6°C° 0 mm 4 m/s 760 mmHg 50%
03:00 +6°C° 0 mm 4 m/s 760 mmHg 51%
04:00 +5°C° 0 mm 5 m/s 760 mmHg 52%
05:00 +6°C° 0 mm 5 m/s 760 mmHg 52%
06:00 +6°C° 0 mm 5 m/s 760 mmHg 51%
07:00 +6°C° 0 mm 5 m/s 760 mmHg 51%
08:00 +7°C° 0 mm 5 m/s 761 mmHg 48%
09:00 +8°C° 0 mm 6 m/s 761 mmHg 44%
10:00 +9°C° 0 mm 6 m/s 761 mmHg 40%
11:00 +9°C° 0 mm 6 m/s 761 mmHg 40%
12:00 +9°C° 0 mm 6 m/s 761 mmHg 39%
13:00 +9°C° 0 mm 5 m/s 761 mmHg 39%
14:00 +9°C° 0 mm 5 m/s 761 mmHg 39%
15:00 +11°C° 0 mm 4 m/s 761 mmHg 39%
16:00 +11°C° 0 mm 4 m/s 761 mmHg 39%
17:00 +10°C° 0 mm 3 m/s 761 mmHg 43%
18:00 +10°C° 0 mm 2 m/s 761 mmHg 46%
19:00 +10°C° 0 mm 1 m/s 761 mmHg 49%
20:00 +10°C° 0 mm 1 m/s 761 mmHg 50%
21:00 +9°C° 0 mm 1 m/s 761 mmHg 52%
22:00 +9°C° 0 mm 1 m/s 761 mmHg 53%
23:00 +8°C° 0 mm 1 m/s 761 mmHg 58%
Mostrar mais